WA3YML Weather Reports


time (UTC)temp
C
wind
direction
speed
KPH
gust
KPH
rain 1hr
cm
rain 24hr
cm
rain mn
cm
humidity
%
barometer
mb
20210723161504 22 120 1.6 11.3 0.00 0.00 0.00 67 1021.9
20210723160004 22 196 1.6 8.0 0.00 0.00 0.00 69 1022.0
20210723154504 21 125 1.6 11.3 0.00 0.00 0.00 72 1022.2
20210723153005 20 290 1.6 8.0 0.00 0.00 0.00 73 1022.3
20210723151503 20 331 3.2 4.8 0.00 0.00 0.00 73 1022.4
20210723150004 19 130 3.2 4.8 0.00 0.00 0.00 76 1022.3
20210723144503 19 83 1.6 8.0 0.00 0.00 0.00 77 1022.3
20210723143003 18 314 1.6 8.0 0.00 0.00 0.00 82 1022.5
20210723141504 18 78 1.6 4.8 0.00 0.00 0.00 79 1022.5
20210723140003 18 38 1.6 8.0 0.00 0.00 0.00 85 1022.4
20210723134503 17 24 1.6 8.0 0.00 0.00 0.00 85 1022.5
20210723133005 17 272 1.6 4.8 0.00 0.00 0.00 86 1022.5
20210723131503 16 122 1.6 8.0 0.00 0.00 0.00 89 1022.6
20210723130004 16 59 1.6 4.8 0.00 0.00 0.00 90 1022.7
20210723124504 15 297 0.0 4.8 0.00 0.00 0.00 94 1022.6
20210723123004 14 240 0.0 3.2 0.00 0.00 0.00 98 1022.4
20210723121504 13 267 0.0 3.2 0.00 0.00 0.00 98 1022.4
20210723120003 12 349 0.0 3.2 0.00 0.00 0.00 98 1022.3
20210723114504 12 299 0.0 3.2 0.00 0.00 0.00 98 1022.2
20210723113005 11 289 0.0 3.2 0.00 0.00 0.00 98 1022.2
20210723111504 11 341 0.0 1.6 0.00 0.00 0.00 98 1022.3
20210723110004 10 0 0.0 0.0 0.00 0.00 0.00 98 1022.1
20210723104504 10 0 0.0 1.6 0.00 0.00 0.00 97 1022.1
20210723103005 10 339 0.0 1.6 0.00 0.00 0.00 97 1022.2
20210723101504 10 0 0.0 0.0 0.00 0.00 0.00 97 1022.0
20210723100003 10 333 0.0 1.6 0.00 0.00 0.00 97 1021.9
20210723094503 9 0 0.0 1.6 0.00 0.00 0.00 97 1021.8
20210723093004 9 297 0.0 1.6 0.00 0.00 0.00 96 1021.7
20210723091503 9 0 0.0 0.0 0.00 0.00 0.00 96 1021.6
20210723090005 9 0 0.0 1.6 0.00 0.00 0.00 96 1021.5
20210723084505 9 10 0.0 1.6 0.00 0.00 0.00 96 1021.3
20210723083005 9 274 0.0 0.0 0.00 0.00 0.00 96 1021.2
20210723081504 9 274 0.0 1.6 0.00 0.00 0.00 95 1021.1
20210723080004 9 0 0.0 1.6 0.00 0.00 0.00 95 1021.1
20210723074504 10 0 0.0 0.0 0.00 0.00 0.00 95 1021.0
20210723073004 10 0 0.0 1.6 0.00 0.00 0.00 95 1021.0
20210723071504 10 342 0.0 0.0 0.00 0.00 0.00 95 1021.1
20210723070004 10 342 0.0 0.0 0.00 0.00 0.00 95 1021.0
20210723064504 10 342 0.0 0.0 0.00 0.00 0.00 95 1021.2
20210723063004 10 342 0.0 1.6 0.00 0.00 0.00 94 1021.5
20210723061504 11 282 0.0 1.6 0.00 0.00 0.00 93 1021.4
20210723060003 11 0 0.0 1.6 0.00 0.00 0.00 93 1021.6
20210723054504 11 0 0.0 0.0 0.00 0.00 0.00 94 1021.5
20210723053005 11 0 0.0 1.6 0.00 0.00 0.00 94 1021.5
20210723051505 11 0 0.0 1.6 0.00 0.00 0.00 93 1021.5
20210723050006 12 0 0.0 0.0 0.00 0.00 0.00 93 1021.7
20210723044504 12 312 0.0 0.0 0.00 0.00 0.00 93 1021.8
20210723043005 12 312 0.0 1.6 0.00 0.00 0.00 93 1021.8
20210723041504 12 317 0.0 1.6 0.00 0.00 0.00 93 1021.8
20210723040004 12 319 0.0 3.2 0.00 0.00 0.00 93 1021.9
20210723034504 13 311 0.0 0.0 0.00 0.00 0.00 94 1021.9
20210723033006 13 311 0.0 0.0 0.00 0.00 0.00 93 1021.8
20210723031504 13 311 0.0 1.6 0.00 0.00 0.00 93 1021.6
20210723030004 14 319 0.0 1.6 0.00 0.00 0.00 92 1021.6
20210723024505 14 321 0.0 1.6 0.00 0.00 0.00 92 1021.6
20210723023005 14 331 0.0 1.6 0.00 0.00 0.00 92 1021.7
20210723021505 15 352 0.0 1.6 0.00 0.00 0.00 92 1021.7
20210723020003 15 341 0.0 1.6 0.00 0.00 0.00 92 1021.6
20210723014503 15 328 0.0 1.6 0.00 0.00 0.00 90 1021.4
20210723013003 15 0 0.0 1.6 0.00 0.00 0.00 91 1021.2
20210723011502 15 18 0.0 1.6 0.00 0.00 0.00 90 1021.1
20210723010004 16 8 0.0 1.6 0.00 0.00 0.00 89 1021.1
20210723004503 16 359 0.0 3.2 0.00 0.00 0.00 88 1020.8
20210723003004 17 347 0.0 3.2 0.00 0.00 0.00 88 1020.7
20210723001502 17 343 1.6 3.2 0.00 0.00 0.00 87 1020.6
20210723000003 17 345 0.0 1.6 0.00 0.00 0.00 85 1020.5
20210722234503 18 0 0.0 0.0 0.00 0.00 0.00 82 1020.4
20210722233003 18 0 0.0 0.0 0.00 0.00 0.00 80 1020.3
20210722231503 18 39 0.0 3.2 0.00 0.00 0.00 78 1020.3
20210722230004 19 17 0.0 1.6 0.00 0.00 0.00 77 1020.3
20210722224503 19 9 1.6 4.8 0.00 0.00 0.00 75 1020.2
20210722223003 20 337 1.6 8.0 0.00 0.00 0.00 76 1020.1
20210722221503 20 36 0.0 8.0 0.00 0.00 0.00 72 1020.0
20210722220002 20 33 1.6 9.7 0.00 0.00 0.00 72 1019.9
20210722214503 20 73 0.0 4.8 0.00 0.00 0.00 71 1019.9
20210722213004 21 110 1.6 4.8 0.00 0.00 0.00 72 1019.8
20210722211503 21 0 0.0 4.8 0.00 0.00 0.00 71 1019.7
20210722210004 21 55 1.6 8.0 0.00 0.00 0.00 70 1019.6
20210722204503 21 184 1.6 8.0 0.00 0.00 0.00 72 1019.6
20210722203003 22 3 3.2 8.0 0.00 0.00 0.00 68 1019.7
20210722201503 22 271 1.6 9.7 0.00 0.00 0.00 70 1019.6
20210722200004 22 312 3.2 9.7 0.00 0.00 0.00 68 1019.5
20210722194503 22 191 3.2 4.8 0.00 0.00 0.00 70 1019.7
20210722193003 22 294 1.6 4.8 0.00 0.00 0.00 70 1019.6
20210722191503 21 264 1.6 8.0 0.00 0.00 0.00 68 1019.7
20210722190003 21 315 1.6 4.8 0.00 0.00 0.00 71 1019.8
20210722184503 21 94 3.2 9.7 0.00 0.00 0.00 66 1020.0
20210722183004 22 257 1.6 9.7 0.00 0.00 0.00 65 1019.8
20210722181503 22 21 1.6 9.7 0.00 0.00 0.00 68 1020.0
20210722180004 22 228 3.2 11.3 0.00 0.00 0.00 64 1020.1
20210722174504 21 358 1.6 8.0 0.00 0.00 0.00 70 1020.2
20210722173003 21 5 1.6 8.0 0.00 0.00 0.00 70 1020.2
20210722171504 21 53 1.6 8.0 0.00 0.00 0.00 66 1020.3
20210722170003 21 277 0.0 8.0 0.00 0.00 0.00 71 1020.3
20210722164503 21 240 1.6 9.7 0.00 0.00 0.00 66 1020.5
20210722163004 21 105 1.6 8.0 0.00 0.00 0.00 70 1020.6